Time,TemperatureF,DewpointF,PressureIn,WindDirection,WindDirectionDegrees,WindSpeedMPH,WindSpeedGustMPH,Humidity,HourlyPrecipIn,Conditions,Clouds,dailyrainin,SoftwareType,DateUTC
2013-03-08 00:02:00,27.7,20.8,30.01,West,273,0.0,0.1,75,0.00,CLR,SKC,0.00,WeatherDisplay:10.37,2013-03-08 07:02:00,
2013-03-08 00:07:00,27.5,20.0,30.01,West,273,0.0,0.0,73,0.00,CLR,SKC,0.00,WeatherDisplay:10.37,2013-03-08 07:07:00,
2013-03-08 00:12:00,27.5,21.2,30.01,West,273,0.0,0.0,77,0.00,CLR,SKC,0.00,WeatherDisplay:10.37,2013-03-08 07:12:00,
2013-03-08 00:17:00,27.3,21.0,30.01,West,273,0.0,0.0,77,0.00,CLR,SKC,0.00,WeatherDisplay:10.37,2013-03-08 07:17:00,
2013-03-08 00:23:00,27.1,20.2,30.01,West,273,0.0,0.0,75,0.00,CLR,SKC,0.00,WeatherDisplay:10.37,2013-03-08 07:23:00,
2013-03-08 00:28:00,27.0,21.4,30.01,West,273,0.0,0.0,79,0.00,CLR,SKC,0.00,WeatherDisplay:10.37,2013-03-08 07:28:00,
2013-03-08 00:33:00,26.8,20.9,30.01,West,273,0.0,0.0,78,0.00,CLR,SKC,0.00,WeatherDisplay:10.37,2013-03-08 07:33:00,
2013-03-08 00:38:00,26.8,21.5,30.01,West,273,0.0,0.0,80,0.00,CLR,SKC,0.00,WeatherDisplay:10.37,2013-03-08 07:38:00,
2013-03-08 00:43:00,26.6,21.3,30.01,West,273,0.0,0.0,80,0.00,CLR,SKC,0.00,WeatherDisplay:10.37,2013-03-08 07:43:00,
2013-03-08 00:48:00,26.5,21.2,30.01,West,273,0.0,0.0,80,0.00,CLR,SKC,0.00,WeatherDisplay:10.37,2013-03-08 07:48:00,
2013-03-08 00:53:00,26.4,21.1,30.01,West,273,0.0,0.0,80,0.00,CLR,SKC,0.00,WeatherDisplay:10.37,2013-03-08 07:53:00,
2013-03-08 00:58:00,26.4,21.1,30.01,West,273,0.0,0.0,80,0.00,CLR,SKC,0.00,WeatherDisplay:10.37,2013-03-08 07:58:00,
2013-03-08 01:03:00,26.3,21.2,30.01,West,273,0.0,0.0,81,0.00,CLR,SKC,0.00,WeatherDisplay:10.37,2013-03-08 08:03:00,
2013-03-08 01:09:00,26.1,21.1,30.01,West,273,0.0,1.0,81,0.00,CLR,SKC,0.00,WeatherDisplay:10.37,2013-03-08 08:09:00,
2013-03-08 01:14:00,26.0,20.7,30.01,West,273,0.0,0.0,80,0.00,CLR,SKC,0.00,WeatherDisplay:10.37,2013-03-08 08:14:00,
2013-03-08 01:19:00,26.1,21.4,30.01,West,273,0.0,0.0,82,0.00,CLR,SKC,0.00,WeatherDisplay:10.37,2013-03-08 08:19:00,
2013-03-08 01:24:00,26.0,21.3,30.01,West,273,0.0,0.0,82,0.00,CLR,SKC,0.00,WeatherDisplay:10.37,2013-03-08 08:24:00,
2013-03-08 01:29:00,25.9,21.2,30.01,West,273,0.0,0.0,82,0.00,CLR,SKC,0.00,WeatherDisplay:10.37,2013-03-08 08:29:00,
2013-03-08 01:34:00,25.8,21.1,30.01,West,273,0.0,0.0,82,0.00,CLR,SKC,0.00,WeatherDisplay:10.37,2013-03-08 08:34:00,
2013-03-08 01:39:00,25.9,21.4,30.01,West,273,1.1,0.0,83,0.00,CLR,SKC,0.00,WeatherDisplay:10.37,2013-03-08 08:39:00,
2013-03-08 01:44:00,25.8,21.3,30.01,West,273,0.0,0.0,83,0.00,CLR,SKC,0.00,WeatherDisplay:10.37,2013-03-08 08:44:00,
2013-03-08 01:49:00,25.7,21.0,30.01,West,273,0.0,0.0,82,0.00,CLR,SKC,0.00,WeatherDisplay:10.37,2013-03-08 08:49:00,
2013-03-08 01:55:00,25.6,21.2,30.01,West,273,0.0,0.0,83,0.00,CLR,SKC,0.00,WeatherDisplay:10.37,2013-03-08 08:55:00,
2013-03-08 02:00:00,25.5,21.1,30.02,West,273,0.0,0.0,83,0.00,CLR,SKC,0.00,WeatherDisplay:10.37,2013-03-08 09:00:00,
2013-03-08 02:05:00,25.4,21.2,30.02,West,273,0.0,0.0,84,0.00,CLR,SKC,0.00,WeatherDisplay:10.37,2013-03-08 09:05:00,
2013-03-08 02:10:00,25.4,21.0,30.02,West,273,0.0,0.0,83,0.00,CLR,SKC,0.00,WeatherDisplay:10.37,2013-03-08 09:10:00,
2013-03-08 02:15:00,25.3,21.1,30.02,West,273,0.0,0.0,84,0.00,CLR,SKC,0.00,WeatherDisplay:10.37,2013-03-08 09:15:00,
2013-03-08 02:20:00,25.3,21.1,30.02,West,273,0.0,0.0,84,0.00,CLR,SKC,0.00,WeatherDisplay:10.37,2013-03-08 09:20:00,
2013-03-08 02:25:00,25.2,21.3,30.02,West,273,0.0,0.0,85,0.00,CLR,SKC,0.00,WeatherDisplay:10.37,2013-03-08 09:25:00,
2013-03-08 02:30:00,25.1,21.2,30.02,West,273,0.0,0.0,85,0.00,CLR,SKC,0.00,WeatherDisplay:10.37,2013-03-08 09:30:00,
2013-03-08 02:36:00,25.0,21.1,30.02,West,273,0.0,0.0,85,0.00,CLR,SKC,0.00,WeatherDisplay:10.37,2013-03-08 09:36:00,
2013-03-08 02:41:00,24.8,20.9,30.02,West,273,0.0,0.0,85,0.00,CLR,SKC,0.00,WeatherDisplay:10.37,2013-03-08 09:41:00,
2013-03-08 02:46:00,24.7,20.8,30.02,West,273,0.0,0.0,85,0.00,CLR,SKC,0.00,WeatherDisplay:10.37,2013-03-08 09:46:00,
2013-03-08 02:51:00,24.6,20.7,30.02,West,273,0.0,0.0,85,0.00,CLR,SKC,0.00,WeatherDisplay:10.37,2013-03-08 09:51:00,
2013-03-08 02:57:00,24.5,20.9,30.02,West,273,0.0,0.0,86,0.00,CLR,SKC,0.00,WeatherDisplay:10.37,2013-03-08 09:57:00,
2013-03-08 03:02:00,24.4,20.8,30.02,West,273,0.0,0.0,86,0.00,CLR,SKC,0.00,WeatherDisplay:10.37,2013-03-08 10:02:00,
2013-03-08 03:07:00,24.4,20.8,30.01,West,273,0.0,0.0,86,0.00,CLR,SKC,0.00,WeatherDisplay:10.37,2013-03-08 10:07:00,
2013-03-08 03:13:00,24.4,21.1,30.01,West,273,0.0,0.0,87,0.00,CLR,SKC,0.00,WeatherDisplay:10.37,2013-03-08 10:13:00,
2013-03-08 03:18:00,24.3,20.7,30.01,West,273,0.0,0.0,86,0.00,CLR,SKC,0.00,WeatherDisplay:10.37,2013-03-08 10:18:00,
2013-03-08 03:23:00,24.1,20.6,30.01,West,273,0.0,0.0,86,0.00,CLR,SKC,0.00,WeatherDisplay:10.37,2013-03-08 10:23:00,
2013-03-08 03:28:00,24.0,20.7,30.01,West,273,0.0,0.0,87,0.00,CLR,SKC,0.00,WeatherDisplay:10.37,2013-03-08 10:28:00,
2013-03-08 03:34:00,23.9,20.6,30.01,West,273,0.0,0.0,87,0.00,CLR,SKC,0.00,WeatherDisplay:10.37,2013-03-08 10:34:00,
2013-03-08 03:39:00,23.8,20.5,30.01,West,273,0.0,0.0,87,0.00,CLR,SKC,0.00,WeatherDisplay:10.37,2013-03-08 10:39:00,
2013-03-08 03:44:00,23.6,20.3,30.01,West,273,0.0,0.0,87,0.00,CLR,SKC,0.00,WeatherDisplay:10.37,2013-03-08 10:44:00,
2013-03-08 03:49:00,23.6,20.6,30.01,West,273,0.0,0.0,88,0.00,CLR,SKC,0.00,WeatherDisplay:10.37,2013-03-08 10:49:00,
2013-03-08 03:54:00,23.6,20.6,30.01,West,273,0.0,0.0,88,0.00,CLR,SKC,0.00,WeatherDisplay:10.37,2013-03-08 10:54:00,
2013-03-08 03:59:00,23.6,20.5,30.01,West,273,0.0,0.0,88,0.00,CLR,SKC,0.00,WeatherDisplay:10.37,2013-03-08 10:59:00,
2013-03-08 04:05:00,23.5,20.5,30.01,West,273,0.0,0.0,88,0.00,CLR,SKC,0.00,WeatherDisplay:10.37,2013-03-08 11:05:00,
2013-03-08 04:10:00,23.4,20.4,30.01,West,273,0.0,0.0,88,0.00,CLR,SKC,0.00,WeatherDisplay:10.37,2013-03-08 11:10:00,
2013-03-08 04:15:00,23.3,20.3,30.01,West,273,0.0,0.0,88,0.00,CLR,SKC,0.00,WeatherDisplay:10.37,2013-03-08 11:15:00,
2013-03-08 04:20:00,23.3,20.3,30.01,West,273,0.0,0.0,88,0.00,CLR,SKC,0.00,WeatherDisplay:10.37,2013-03-08 11:20:00,
2013-03-08 04:25:00,23.3,20.3,30.01,West,273,0.0,0.0,88,0.00,CLR,SKC,0.00,WeatherDisplay:10.37,2013-03-08 11:25:00,
2013-03-08 04:30:00,23.2,20.2,30.01,West,273,0.0,0.0,88,0.00,CLR,SKC,0.00,WeatherDisplay:10.37,2013-03-08 11:30:00,
2013-03-08 04:36:00,23.2,20.2,30.01,West,273,0.0,0.0,88,0.00,CLR,SKC,0.00,WeatherDisplay:10.37,2013-03-08 11:36:00,
2013-03-08 04:41:00,23.2,20.2,30.02,West,273,0.0,0.0,88,0.00,CLR,SKC,0.00,WeatherDisplay:10.37,2013-03-08 11:41:00,
2013-03-08 04:46:00,23.2,19.9,30.02,West,273,0.0,0.0,87,0.00,CLR,SKC,0.00,WeatherDisplay:10.37,2013-03-08 11:46:00,
2013-03-08 04:51:00,23.2,20.2,30.02,West,273,0.0,0.0,88,0.00,CLR,SKC,0.00,WeatherDisplay:10.37,2013-03-08 11:51:00,
2013-03-08 04:56:00,23.0,20.0,30.02,West,273,0.0,0.0,88,0.00,CLR,SKC,0.00,WeatherDisplay:10.37,2013-03-08 11:56:00,
2013-03-08 05:01:00,22.9,19.9,30.02,West,273,0.0,0.0,88,0.00,CLR,SKC,0.00,WeatherDisplay:10.37,2013-03-08 12:01:00,
2013-03-08 05:06:00,22.8,19.8,30.02,West,273,0.0,0.0,88,0.00,CLR,SKC,0.00,WeatherDisplay:10.37,2013-03-08 12:06:00,
2013-03-08 05:12:00,22.7,19.9,30.02,West,273,0.0,0.0,89,0.00,CLR,SKC,0.00,WeatherDisplay:10.37,2013-03-08 12:12:00,
2013-03-08 05:17:00,22.6,19.8,30.02,West,273,0.0,0.0,89,0.00,CLR,SKC,0.00,WeatherDisplay:10.37,2013-03-08 12:17:00,
2013-03-08 05:22:00,22.4,19.6,30.02,West,273,0.0,0.0,89,0.00,CLR,SKC,0.00,WeatherDisplay:10.37,2013-03-08 12:22:00,
2013-03-08 05:28:00,22.2,19.5,30.03,West,273,0.0,0.0,89,0.00,CLR,SKC,0.00,WeatherDisplay:10.37,2013-03-08 12:28:00,
2013-03-08 05:34:00,22.1,19.4,30.02,West,273,0.0,0.0,89,0.00,CLR,SKC,0.00,WeatherDisplay:10.37,2013-03-08 12:34:00,
2013-03-08 05:39:00,22.1,19.6,30.02,West,273,0.0,0.0,90,0.00,CLR,SKC,0.00,WeatherDisplay:10.37,2013-03-08 12:39:00,
2013-03-08 05:44:00,22.1,19.3,30.03,West,273,0.0,0.0,89,0.00,CLR,SKC,0.00,WeatherDisplay:10.37,2013-03-08 12:44:00,
2013-03-08 05:49:00,22.2,19.7,30.03,West,273,0.0,0.0,90,0.00,CLR,SKC,0.00,WeatherDisplay:10.37,2013-03-08 12:49:00,
2013-03-08 05:54:00,22.4,19.6,30.02,West,273,0.0,0.0,89,0.00,CLR,SKC,0.00,WeatherDisplay:10.37,2013-03-08 12:54:00,
2013-03-08 05:59:00,22.5,19.7,30.02,West,273,0.0,0.0,89,0.00,CLR,SKC,0.00,WeatherDisplay:10.37,2013-03-08 12:59:00,
2013-03-08 06:04:00,22.5,19.7,30.02,West,273,0.0,0.0,89,0.00,CLR,SKC,0.00,WeatherDisplay:10.37,2013-03-08 13:04:00,
2013-03-08 06:09:00,22.3,19.6,30.02,West,273,0.0,0.0,89,0.00,CLR,SKC,0.00,WeatherDisplay:10.37,2013-03-08 13:09:00,
2013-03-08 06:15:00,22.1,19.4,30.02,West,273,0.0,0.0,89,0.00,CLR,SKC,0.00,WeatherDisplay:10.37,2013-03-08 13:15:00,
2013-03-08 06:21:00,21.9,19.2,30.02,West,273,0.0,0.0,89,0.00,CLR,SKC,0.00,WeatherDisplay:10.37,2013-03-08 13:21:00,
2013-03-08 06:27:00,21.9,19.2,30.02,West,273,0.0,0.0,89,0.00,CLR,SKC,0.00,WeatherDisplay:10.37,2013-03-08 13:27:00,
2013-03-08 06:32:00,21.8,19.1,30.02,West,273,0.0,0.0,89,0.00,CLR,SKC,0.00,WeatherDisplay:10.37,2013-03-08 13:32:00,
2013-03-08 06:38:00,21.7,19.2,30.02,West,273,0.0,0.0,90,0.00,CLR,SKC,0.00,WeatherDisplay:10.37,2013-03-08 13:38:00,
2013-03-08 06:43:00,21.7,19.2,30.02,West,273,0.0,0.0,90,0.00,CLR,SKC,0.00,WeatherDisplay:10.37,2013-03-08 13:43:00,
2013-03-08 06:48:00,21.5,18.8,30.02,West,273,0.0,0.0,89,0.00,CLR,SKC,0.00,WeatherDisplay:10.37,2013-03-08 13:48:00,
2013-03-08 06:53:00,21.3,18.6,30.02,West,273,0.0,0.0,89,0.00,CLR,SKC,0.00,WeatherDisplay:10.37,2013-03-08 13:53:00,
2013-03-08 06:58:00,21.2,18.7,30.02,West,273,0.0,0.0,90,0.00,CLR,SKC,0.00,WeatherDisplay:10.37,2013-03-08 13:58:00,
2013-03-08 07:03:00,21.1,18.6,30.03,West,273,0.0,0.0,90,0.00,CLR,SKC,0.00,WeatherDisplay:10.37,2013-03-08 14:03:00,
2013-03-08 07:08:00,21.1,18.6,30.03,West,273,0.0,0.0,90,0.00,CLR,SKC,0.00,WeatherDisplay:10.37,2013-03-08 14:08:00,
2013-03-08 07:13:00,20.9,18.4,30.03,West,273,0.0,0.0,90,0.00,CLR,SKC,0.00,WeatherDisplay:10.37,2013-03-08 14:13:00,
2013-03-08 07:18:00,20.8,18.3,30.03,West,273,0.0,0.0,90,0.00,CLR,SKC,0.00,WeatherDisplay:10.37,2013-03-08 14:18:00,
2013-03-08 07:23:00,20.9,18.4,30.03,West,273,0.0,0.0,90,0.00,CLR,SKC,0.00,WeatherDisplay:10.37,2013-03-08 14:23:00,
2013-03-08 07:28:00,20.8,18.3,30.03,West,273,0.0,0.0,90,0.00,CLR,SKC,0.00,WeatherDisplay:10.37,2013-03-08 14:28:00,
2013-03-08 07:33:00,20.8,18.3,30.03,West,273,0.0,0.0,90,0.00,CLR,SKC,0.00,WeatherDisplay:10.37,2013-03-08 14:33:00,
2013-03-08 07:38:00,20.9,18.4,30.03,West,273,0.0,0.0,90,0.00,CLR,SKC,0.00,WeatherDisplay:10.37,2013-03-08 14:38:00,
2013-03-08 07:43:00,21.0,18.8,30.03,West,273,0.0,0.0,91,0.00,CLR,SKC,0.00,WeatherDisplay:10.37,2013-03-08 14:43:00,
2013-03-08 07:48:00,21.1,18.9,30.03,West,273,0.0,0.0,91,0.00,CLR,SKC,0.00,WeatherDisplay:10.37,2013-03-08 14:48:00,
2013-03-08 07:54:00,21.3,19.1,30.03,West,273,0.0,0.0,91,0.00,CLR,SKC,0.00,WeatherDisplay:10.37,2013-03-08 14:54:00,
2013-03-08 07:59:00,21.5,19.5,30.03,West,273,0.0,0.0,92,0.00,CLR,SKC,0.00,WeatherDisplay:10.37,2013-03-08 14:59:00,
2013-03-08 08:05:00,21.7,19.7,30.04,West,273,0.0,0.0,92,0.00,CLR,SKC,0.00,WeatherDisplay:10.37,2013-03-08 15:05:00,
2013-03-08 08:10:00,21.8,19.8,30.04,West,273,0.0,0.0,92,0.00,CLR,SKC,0.00,WeatherDisplay:10.37,2013-03-08 15:10:00,
2013-03-08 08:15:00,22.2,20.0,30.04,West,273,0.0,0.0,91,0.00,CLR,SKC,0.00,WeatherDisplay:10.37,2013-03-08 15:15:00,
2013-03-08 08:20:00,22.7,20.5,30.03,West,273,0.0,0.0,91,0.00,CLR,SKC,0.00,WeatherDisplay:10.37,2013-03-08 15:20:00,
2013-03-08 08:25:00,23.1,20.9,30.03,West,273,0.0,0.0,91,0.00,CLR,SKC,0.00,WeatherDisplay:10.37,2013-03-08 15:25:00,
2013-03-08 08:30:00,23.5,21.3,30.03,West,273,1.0,0.0,91,0.00,CLR,SKC,0.00,WeatherDisplay:10.37,2013-03-08 15:30:00,
2013-03-08 08:35:00,24.0,21.5,30.03,West,274,1.1,1.1,90,0.00,CLR,SKC,0.00,WeatherDisplay:10.37,2013-03-08 15:35:00,
2013-03-08 08:41:00,24.5,21.7,30.03,North,355,0.0,0.0,89,0.00,CLR,SKC,0.00,WeatherDisplay:10.37,2013-03-08 15:41:00,
2013-03-08 08:46:00,24.8,21.8,30.03,North,355,0.0,0.0,88,0.00,CLR,SKC,0.00,WeatherDisplay:10.37,2013-03-08 15:46:00,
2013-03-08 08:51:00,25.0,21.7,30.03,North,355,0.0,0.0,87,0.00,CLR,SKC,0.00,WeatherDisplay:10.37,2013-03-08 15:51:00,
2013-03-08 08:56:00,25.4,21.8,30.03,North,355,0.0,0.1,86,0.00,CLR,SKC,0.00,WeatherDisplay:10.37,2013-03-08 15:56:00,
2013-03-08 09:02:00,25.9,21.7,30.03,North,5,1.1,0.0,84,0.00,CLR,SKC,0.00,WeatherDisplay:10.37,2013-03-08 16:02:00,
2013-03-08 09:07:00,26.3,22.4,30.03,North,5,0.0,0.0,85,0.00,CLR,SKC,0.00,WeatherDisplay:10.37,2013-03-08 16:07:00,
2013-03-08 09:12:00,26.7,22.2,30.02,North,5,1.0,1.0,83,0.00,CLR,SKC,0.00,WeatherDisplay:10.37,2013-03-08 16:12:00,
2013-03-08 09:17:00,27.2,22.4,30.02,North,5,1.1,1.1,82,0.00,CLR,SKC,0.00,WeatherDisplay:10.37,2013-03-08 16:17:00,
2013-03-08 09:22:00,27.6,22.5,30.02,North,9,1.1,0.0,81,0.00,CLR,SKC,0.00,WeatherDisplay:10.37,2013-03-08 16:22:00,
2013-03-08 09:27:00,27.9,22.5,30.02,North,9,1.1,1.1,80,0.00,CLR,SKC,0.00,WeatherDisplay:10.37,2013-03-08 16:27:00,
2013-03-08 09:32:00,28.2,22.5,30.02,NNE,29,2.3,0.0,79,0.00,CLR,SKC,0.00,WeatherDisplay:10.37,2013-03-08 16:32:00,
2013-03-08 09:37:00,28.5,22.8,30.02,NNE,28,2.0,2.0,79,0.00,CLR,SKC,0.00,WeatherDisplay:10.37,2013-03-08 16:37:00,
2013-03-08 09:43:00,29.0,22.7,30.02,NNE,30,2.3,2.3,77,0.00,CLR,SKC,0.00,WeatherDisplay:10.37,2013-03-08 16:43:00,
2013-03-08 09:49:00,29.3,23.0,30.02,NE,34,2.3,0.0,77,0.00,CLR,SKC,0.00,WeatherDisplay:10.37,2013-03-08 16:49:00,
2013-03-08 09:53:00,29.8,23.8,30.02,NE,34,3.0,3.0,78,0.00,CLR,SKC,0.00,WeatherDisplay:10.37,2013-03-08 16:53:00,
2013-03-08 09:58:00,29.9,23.3,30.02,NE,40,1.1,1.1,76,0.00,CLR,SKC,0.00,WeatherDisplay:10.37,2013-03-08 16:58:00,
2013-03-08 10:04:00,30.1,23.4,30.02,NE,35,0.0,2.0,76,0.00,CLR,SKC,0.00,WeatherDisplay:10.37,2013-03-08 17:04:00,
2013-03-08 10:09:00,30.3,23.4,30.02,NE,41,0.0,2.0,75,0.00,CLR,SKC,0.00,WeatherDisplay:10.37,2013-03-08 17:09:00,
2013-03-08 10:14:00,30.8,23.5,30.01,NE,40,1.1,0.0,74,0.00,CLR,SKC,0.00,WeatherDisplay:10.37,2013-03-08 17:14:00,
2013-03-08 10:19:00,31.1,23.5,30.01,NE,39,1.1,1.1,73,0.00,CLR,SKC,0.00,WeatherDisplay:10.37,2013-03-08 17:19:00,
2013-03-08 10:25:00,31.5,23.5,30.01,NE,40,0.0,0.0,72,0.00,CLR,SKC,0.00,WeatherDisplay:10.37,2013-03-08 17:25:00,
2013-03-08 10:30:00,32.0,24.3,30.01,NE,43,2.3,2.3,73,0.00,CLR,SKC,0.00,WeatherDisplay:10.37,2013-03-08 17:30:00,
2013-03-08 10:35:00,32.4,23.7,30.01,NE,42,1.1,0.0,70,0.00,CLR,SKC,0.00,WeatherDisplay:10.37,2013-03-08 17:35:00,
2013-03-08 10:41:00,32.9,24.2,30.01,NE,39,2.3,2.3,70,0.00,CLR,SKC,0.00,WeatherDisplay:10.37,2013-03-08 17:41:00,
2013-03-08 10:47:00,33.3,24.6,30.00,ESE,123,2.0,2.0,70,0.00,CLR,SKC,0.00,WeatherDisplay:10.37,2013-03-08 17:47:00,
2013-03-08 10:52:00,33.6,24.2,30.00,East,97,2.3,2.3,68,0.00,CLR,SKC,0.00,WeatherDisplay:10.37,2013-03-08 17:52:00,
2013-03-08 10:57:00,34.0,24.5,30.00,East,97,2.0,2.0,68,0.00,CLR,SKC,0.00,WeatherDisplay:10.37,2013-03-08 17:57:00,
2013-03-08 11:02:00,34.6,24.4,30.00,East,79,2.0,2.0,66,0.00,CLR,SKC,0.00,WeatherDisplay:10.37,2013-03-08 18:02:00,
2013-03-08 11:08:00,34.8,24.6,30.00,ESE,119,1.1,1.1,66,0.00,CLR,SKC,0.00,WeatherDisplay:10.37,2013-03-08 18:08:00,
2013-03-08 11:13:00,35.2,23.5,30.00,NNE,33,3.5,3.5,62,0.00,CLR,SKC,0.00,WeatherDisplay:10.37,2013-03-08 18:13:00,
2013-03-08 11:18:00,35.3,24.0,30.00,NNE,33,1.1,0.0,63,0.00,CLR,SKC,0.00,WeatherDisplay:10.37,2013-03-08 18:18:00,
2013-03-08 11:23:00,35.7,23.9,29.99,NNW,340,1.1,1.1,62,0.00,CLR,SKC,0.00,WeatherDisplay:10.37,2013-03-08 18:23:00,
2013-03-08 11:28:00,35.9,23.7,29.99,East,95,0.0,0.1,61,0.00,CLR,SKC,0.00,WeatherDisplay:10.37,2013-03-08 18:28:00,
2013-03-08 11:33:00,36.2,23.6,29.99,ENE,63,2.3,2.3,60,0.00,CLR,SKC,0.00,WeatherDisplay:10.37,2013-03-08 18:33:00,
2013-03-08 11:38:00,36.4,23.8,29.98,NE,44,1.0,1.0,60,0.00,CLR,SKC,0.00,WeatherDisplay:10.37,2013-03-08 18:38:00,
2013-03-08 11:43:00,36.8,24.2,29.98,East,98,1.1,1.1,60,0.00,CLR,SKC,0.00,WeatherDisplay:10.37,2013-03-08 18:43:00,
2013-03-08 11:48:00,37.3,23.9,29.98,ENE,75,2.3,2.3,58,0.00,CLR,SKC,0.00,WeatherDisplay:10.37,2013-03-08 18:48:00,
2013-03-08 11:53:00,37.5,24.1,29.98,ENE,74,1.1,1.1,58,0.00,CLR,SKC,0.00,WeatherDisplay:10.37,2013-03-08 18:53:00,
2013-03-08 11:58:00,37.8,24.3,29.98,NNE,22,1.0,1.0,58,0.00,CLR,SKC,0.00,WeatherDisplay:10.37,2013-03-08 18:58:00,
2013-03-08 12:03:00,38.3,24.4,29.97,NE,35,2.0,3.0,57,0.00,CLR,SKC,0.00,WeatherDisplay:10.37,2013-03-08 19:03:00,
2013-03-08 12:08:00,38.4,24.1,29.97,NE,46,0.0,2.0,56,0.00,CLR,SKC,0.00,WeatherDisplay:10.37,2013-03-08 19:08:00,
2013-03-08 12:14:00,39.2,24.4,29.97,ENE,73,1.1,1.1,55,0.00,CLR,SKC,0.00,WeatherDisplay:10.37,2013-03-08 19:14:00,
2013-03-08 12:20:00,40.2,24.9,29.97,ESE,123,2.3,2.3,54,0.00,CLR,SKC,0.00,WeatherDisplay:10.37,2013-03-08 19:20:00,
2013-03-08 12:25:00,40.5,24.2,29.97,NE,46,2.0,2.0,52,0.00,CLR,SKC,0.00,WeatherDisplay:10.37,2013-03-08 19:25:00,
2013-03-08 12:31:00,40.7,24.4,29.96,NNE,23,1.1,1.1,52,0.00,CLR,SKC,0.00,WeatherDisplay:10.37,2013-03-08 19:31:00,
2013-03-08 12:36:00,40.7,24.0,29.96,NNE,23,3.5,3.5,51,0.00,CLR,SKC,0.00,WeatherDisplay:10.37,2013-03-08 19:36:00,
2013-03-08 12:42:00,40.9,23.7,29.96,NE,52,2.3,0.0,50,0.00,CLR,SKC,0.00,WeatherDisplay:10.37,2013-03-08 19:42:00,
2013-03-08 12:47:00,41.3,24.0,29.95,North,355,2.3,2.3,50,0.00,CLR,SKC,0.00,WeatherDisplay:10.37,2013-03-08 19:47:00,
2013-03-08 12:52:00,41.8,23.5,29.95,NNE,26,2.3,2.3,48,0.00,CLR,SKC,0.00,WeatherDisplay:10.37,2013-03-08 19:52:00,
2013-03-08 12:57:00,41.8,23.5,29.95,NNE,27,2.3,2.3,48,0.00,CLR,SKC,0.00,WeatherDisplay:10.37,2013-03-08 19:57:00,
2013-03-08 13:02:00,41.9,24.1,29.94,SSE,155,1.1,1.1,49,0.00,CLR,SKC,0.00,WeatherDisplay:10.37,2013-03-08 20:02:00,
2013-03-08 13:07:00,42.3,24.0,29.94,NE,45,3.0,3.0,48,0.00,CLR,SKC,0.00,WeatherDisplay:10.37,2013-03-08 20:07:00,
2013-03-08 13:12:00,42.4,23.1,29.94,North,360,2.3,2.3,46,0.00,CLR,SKC,0.00,WeatherDisplay:10.37,2013-03-08 20:12:00,
2013-03-08 13:18:00,42.9,24.0,29.93,NE,42,3.5,3.5,47,0.00,CLR,SKC,0.00,WeatherDisplay:10.37,2013-03-08 20:18:00,
2013-03-08 13:23:00,43.3,23.9,29.93,NE,55,2.3,2.3,46,0.00,CLR,SKC,0.00,WeatherDisplay:10.37,2013-03-08 20:23:00,
2013-03-08 13:28:00,43.3,23.9,29.93,NNW,348,3.0,3.0,46,0.00,CLR,SKC,0.00,WeatherDisplay:10.37,2013-03-08 20:28:00,
2013-03-08 13:33:00,43.6,23.6,29.92,NE,37,1.0,3.0,45,0.00,CLR,SKC,0.00,WeatherDisplay:10.37,2013-03-08 20:33:00,
2013-03-08 13:38:00,43.8,24.4,29.92,NE,38,1.0,2.0,46,0.00,CLR,SKC,0.00,WeatherDisplay:10.37,2013-03-08 20:38:00,
2013-03-08 13:44:00,44.2,24.2,29.92,NE,46,2.3,2.3,45,0.00,CLR,SKC,0.00,WeatherDisplay:10.37,2013-03-08 20:44:00,
2013-03-08 13:49:00,44.5,23.9,29.91,NE,36,3.5,3.5,44,0.00,CLR,SKC,0.00,WeatherDisplay:10.37,2013-03-08 20:49:00,
2013-03-08 13:54:00,44.5,23.4,29.91,NNW,334,2.3,2.3,43,0.00,CLR,SKC,0.00,WeatherDisplay:10.37,2013-03-08 20:54:00,
2013-03-08 13:59:00,44.5,23.4,29.91,ENE,57,3.5,3.5,43,0.00,CLR,SKC,0.00,WeatherDisplay:10.37,2013-03-08 20:59:00,
2013-03-08 14:04:00,44.6,22.9,29.91,ENE,57,1.1,1.1,42,0.00,CLR,SKC,0.00,WeatherDisplay:10.37,2013-03-08 21:04:00,
2013-03-08 14:09:00,45.0,23.3,29.90,ENE,57,2.3,2.3,42,0.00,CLR,SKC,0.00,WeatherDisplay:10.37,2013-03-08 21:09:00,
2013-03-08 14:14:00,45.2,23.4,29.90,ENE,70,3.5,3.5,42,0.00,CLR,SKC,0.00,WeatherDisplay:10.37,2013-03-08 21:14:00,
2013-03-08 14:19:00,45.2,22.9,29.90,ENE,58,1.0,4.0,41,0.00,CLR,SKC,0.00,WeatherDisplay:10.37,2013-03-08 21:19:00,
2013-03-08 14:25:00,45.4,21.9,29.90,NE,36,3.5,3.5,39,0.00,CLR,SKC,0.00,WeatherDisplay:10.37,2013-03-08 21:25:00,
2013-03-08 14:30:00,45.6,22.6,29.90,NE,50,2.3,2.3,40,0.00,CLR,SKC,0.00,WeatherDisplay:10.37,2013-03-08 21:30:00,
2013-03-08 14:35:00,46.0,22.4,29.90,NE,44,3.5,3.5,39,0.00,CLR,SKC,0.00,WeatherDisplay:10.37,2013-03-08 21:35:00,
2013-03-08 14:39:00,46.3,22.0,29.90,NE,46,3.5,3.5,38,0.00,CLR,SKC,0.00,WeatherDisplay:10.37,2013-03-08 21:39:00,
2013-03-08 14:45:00,46.4,22.8,29.90,NE,51,2.3,2.3,39,0.00,CLR,SKC,0.00,WeatherDisplay:10.37,2013-03-08 21:45:00,
2013-03-08 14:50:00,46.5,22.2,29.89,NE,41,2.3,2.3,38,0.00,CLR,SKC,0.00,WeatherDisplay:10.37,2013-03-08 21:50:00,
2013-03-08 14:55:00,46.5,22.2,29.89,NE,46,3.5,3.5,38,0.00,CLR,SKC,0.00,WeatherDisplay:10.37,2013-03-08 21:55:00,
2013-03-08 15:00:00,46.5,21.6,29.89,NE,50,3.5,3.5,37,0.00,CLR,SKC,0.00,WeatherDisplay:10.37,2013-03-08 22:00:00,
2013-03-08 15:06:00,46.6,21.7,29.89,NNE,33,2.3,2.3,37,0.00,CLR,SKC,0.00,WeatherDisplay:10.37,2013-03-08 22:06:00,
2013-03-08 15:11:00,46.5,21.6,29.89,NE,42,2.3,2.3,37,0.00,CLR,SKC,0.00,WeatherDisplay:10.37,2013-03-08 22:11:00,
2013-03-08 15:16:00,46.6,22.3,29.89,NE,55,3.5,3.5,38,0.00,CLR,SKC,0.00,WeatherDisplay:10.37,2013-03-08 22:16:00,
2013-03-08 15:21:00,46.6,22.3,29.89,NE,46,2.3,2.3,38,0.00,CLR,SKC,0.00,WeatherDisplay:10.37,2013-03-08 22:21:00,
2013-03-08 15:26:00,46.8,23.1,29.89,NE,48,2.3,0.0,39,0.00,CLR,SKC,0.00,WeatherDisplay:10.37,2013-03-08 22:26:00,
2013-03-08 15:32:00,46.9,23.8,29.89,NE,34,2.3,2.3,40,0.00,CLR,SKC,0.00,WeatherDisplay:10.37,2013-03-08 22:32:00,
2013-03-08 15:37:00,46.8,21.9,29.89,NE,42,2.3,2.3,37,0.00,CLR,SKC,0.00,WeatherDisplay:10.37,2013-03-08 22:37:00,
2013-03-08 15:42:00,46.9,22.6,29.89,NNE,19,3.5,3.5,38,0.00,CLR,SKC,0.00,WeatherDisplay:10.37,2013-03-08 22:42:00,
2013-03-08 15:47:00,46.9,22.0,29.89,NNE,32,2.3,2.3,37,0.00,CLR,SKC,0.00,WeatherDisplay:10.37,2013-03-08 22:47:00,
2013-03-08 15:52:00,46.7,21.8,29.89,NNE,32,2.3,2.3,37,0.00,CLR,SKC,0.00,WeatherDisplay:10.37,2013-03-08 22:52:00,
2013-03-08 15:57:00,46.8,23.1,29.89,NE,51,3.5,3.5,39,0.00,CLR,SKC,0.00,WeatherDisplay:10.37,2013-03-08 22:57:00,
2013-03-08 16:02:00,46.9,23.8,29.89,NE,51,2.3,2.3,40,0.00,CLR,SKC,0.00,WeatherDisplay:10.37,2013-03-08 23:02:00,
2013-03-08 16:08:00,46.9,23.2,29.89,NE,35,3.5,3.5,39,0.00,CLR,SKC,0.00,WeatherDisplay:10.37,2013-03-08 23:08:00,
2013-03-08 16:13:00,46.9,23.2,29.89,NE,53,3.5,3.5,39,0.00,CLR,SKC,0.00,WeatherDisplay:10.37,2013-03-08 23:13:00,
2013-03-08 16:19:00,46.5,23.5,29.89,NE,43,1.0,3.0,40,0.00,CLR,SKC,0.00,WeatherDisplay:10.37,2013-03-08 23:19:00,
2013-03-08 16:24:00,46.2,22.6,29.89,NE,43,2.3,2.3,39,0.00,CLR,SKC,0.00,WeatherDisplay:10.37,2013-03-08 23:24:00,
2013-03-08 16:29:00,46.1,23.1,29.89,NE,43,3.5,3.5,40,0.00,CLR,SKC,0.00,WeatherDisplay:10.37,2013-03-08 23:29:00,
2013-03-08 16:34:00,46.0,23.6,29.89,NE,43,1.1,1.1,41,0.00,CLR,SKC,0.00,WeatherDisplay:10.37,2013-03-08 23:34:00,
2013-03-08 16:39:00,45.8,23.4,29.89,NE,43,0.0,0.2,41,0.00,CLR,SKC,0.00,WeatherDisplay:10.37,2013-03-08 23:39:00,
2013-03-08 16:44:00,45.2,22.3,29.89,NE,43,0.0,0.0,40,0.00,CLR,SKC,0.00,WeatherDisplay:10.37,2013-03-08 23:44:00,
2013-03-08 16:50:00,44.7,21.8,29.90,NE,43,1.1,1.1,40,0.00,CLR,SKC,0.00,WeatherDisplay:10.37,2013-03-08 23:50:00,
2013-03-08 16:56:00,44.3,21.5,29.89,NE,43,1.1,1.1,40,0.00,CLR,SKC,0.00,WeatherDisplay:10.37,2013-03-08 23:56:00,
2013-03-08 17:01:00,44.1,21.3,29.90,NE,43,0.0,0.0,40,0.00,CLR,SKC,0.00,WeatherDisplay:10.37,2013-03-09 00:01:00,
2013-03-08 17:06:00,43.9,21.1,29.90,NE,44,0.0,0.1,40,0.00,CLR,SKC,0.00,WeatherDisplay:10.37,2013-03-09 00:06:00,
2013-03-08 17:11:00,43.8,21.0,29.90,NE,44,0.0,0.0,40,0.00,CLR,SKC,0.00,WeatherDisplay:10.37,2013-03-09 00:11:00,
2013-03-08 17:16:00,43.7,22.1,29.90,NE,44,0.0,0.0,42,0.00,CLR,SKC,0.00,WeatherDisplay:10.37,2013-03-09 00:16:00,
2013-03-08 17:21:00,43.7,22.1,29.90,NE,44,0.0,0.0,42,0.00,CLR,SKC,0.00,WeatherDisplay:10.37,2013-03-09 00:21:00,
2013-03-08 17:26:00,43.6,22.5,29.90,NE,44,0.0,0.0,43,0.00,CLR,SKC,0.00,WeatherDisplay:10.37,2013-03-09 00:26:00,
2013-03-08 17:32:00,43.7,22.6,29.90,NE,44,0.0,0.0,43,0.00,CLR,SKC,0.00,WeatherDisplay:10.37,2013-03-09 00:32:00,
2013-03-08 17:37:00,43.6,22.5,29.90,NE,44,0.0,0.0,43,0.00,CLR,SKC,0.00,WeatherDisplay:10.37,2013-03-09 00:37:00,
2013-03-08 17:42:00,43.3,23.4,29.90,NE,44,0.0,0.0,45,0.00,CLR,SKC,0.00,WeatherDisplay:10.37,2013-03-09 00:42:00,
2013-03-08 17:47:00,42.7,25.3,29.91,NE,44,0.0,0.0,50,0.00,CLR,SKC,0.00,WeatherDisplay:10.37,2013-03-09 00:47:00,
2013-03-08 17:53:00,41.9,24.6,29.91,NE,44,1.1,1.1,50,0.00,CLR,SKC,0.00,WeatherDisplay:10.37,2013-03-09 00:53:00,
2013-03-08 17:58:00,41.0,23.3,29.91,NE,44,0.0,0.0,49,0.00,CLR,SKC,0.00,WeatherDisplay:10.37,2013-03-09 00:58:00,
2013-03-08 18:03:00,40.4,23.2,29.91,NE,44,0.0,0.0,50,0.00,CLR,SKC,0.00,WeatherDisplay:10.37,2013-03-09 01:03:00,
2013-03-08 18:08:00,39.6,22.9,29.91,NE,44,0.0,0.0,51,0.00,CLR,SKC,0.00,WeatherDisplay:10.37,2013-03-09 01:08:00,
2013-03-08 18:13:00,39.0,23.7,29.91,NNE,22,1.1,1.1,54,0.00,CLR,SKC,0.00,WeatherDisplay:10.37,2013-03-09 01:13:00,
2013-03-08 18:18:00,38.2,23.4,29.91,NNE,21,1.1,1.1,55,0.00,CLR,SKC,0.00,WeatherDisplay:10.37,2013-03-09 01:18:00,
2013-03-08 18:23:00,37.8,23.5,29.92,NNE,21,0.0,0.0,56,0.00,CLR,SKC,0.00,WeatherDisplay:10.37,2013-03-09 01:23:00,
2013-03-08 18:28:00,37.2,24.2,29.92,NNE,21,1.1,0.0,59,0.00,CLR,SKC,0.00,WeatherDisplay:10.37,2013-03-09 01:28:00,
2013-03-08 18:33:00,36.7,24.1,29.92,NNE,13,0.0,0.0,60,0.00,CLR,SKC,0.00,WeatherDisplay:10.37,2013-03-09 01:33:00,
2013-03-08 18:38:00,36.2,24.8,29.93,NNW,328,3.5,3.5,63,0.00,CLR,SKC,0.00,WeatherDisplay:10.37,2013-03-09 01:38:00,
2013-03-08 18:43:00,35.9,23.4,29.93,NNW,328,2.0,2.0,60,0.00,CLR,SKC,0.00,WeatherDisplay:10.37,2013-03-09 01:43:00,
2013-03-08 18:48:00,35.7,24.3,29.93,NNW,327,1.1,1.1,63,0.00,CLR,SKC,0.00,WeatherDisplay:10.37,2013-03-09 01:48:00,
2013-03-08 18:53:00,35.6,23.5,29.94,NNW,327,0.0,0.0,61,0.00,CLR,SKC,0.00,WeatherDisplay:10.37,2013-03-09 01:53:00,
2013-03-08 18:58:00,35.7,23.9,29.94,NNW,327,1.1,0.0,62,0.00,CLR,SKC,0.00,WeatherDisplay:10.37,2013-03-09 01:58:00,
2013-03-08 19:03:00,35.7,23.2,29.94,NNW,341,2.0,2.0,60,0.00,CLR,SKC,0.00,WeatherDisplay:10.37,2013-03-09 02:03:00,
2013-03-08 19:08:00,35.9,23.4,29.95,NNW,327,0.0,0.0,60,0.00,CLR,SKC,0.00,WeatherDisplay:10.37,2013-03-09 02:08:00,
2013-03-08 19:13:00,36.1,23.1,29.95,NNW,327,0.0,0.0,59,0.00,CLR,SKC,0.00,WeatherDisplay:10.37,2013-03-09 02:13:00,
2013-03-08 19:19:00,36.0,23.0,29.95,NNW,327,0.0,0.0,59,0.00,CLR,SKC,0.00,WeatherDisplay:10.37,2013-03-09 02:19:00,
2013-03-08 19:24:00,36.0,23.0,29.96,NNW,327,0.0,0.0,59,0.00,CLR,SKC,0.00,WeatherDisplay:10.37,2013-03-09 02:24:00,
2013-03-08 19:28:00,36.0,22.6,29.96,NNW,327,0.0,0.0,58,0.00,CLR,SKC,0.00,WeatherDisplay:10.37,2013-03-09 02:28:00,
2013-03-08 19:33:00,36.0,22.6,29.96,NNW,327,0.0,0.0,58,0.00,CLR,SKC,0.00,WeatherDisplay:10.37,2013-03-09 02:33:00,
2013-03-08 19:38:00,35.9,23.0,29.97,NNW,327,0.0,0.0,59,0.00,CLR,SKC,0.00,WeatherDisplay:10.37,2013-03-09 02:38:00,
2013-03-08 19:44:00,35.6,23.1,29.97,NNW,327,0.0,1.0,60,0.00,CLR,SKC,0.00,WeatherDisplay:10.37,2013-03-09 02:44:00,
2013-03-08 19:49:00,35.1,22.6,29.97,NW,314,0.0,2.0,60,0.00,CLR,SKC,0.00,WeatherDisplay:10.37,2013-03-09 02:49:00,
2013-03-08 19:54:00,34.8,22.3,29.98,WNW,303,0.0,0.0,60,0.00,CLR,SKC,0.00,WeatherDisplay:10.37,2013-03-09 02:54:00,
2013-03-08 19:59:00,34.8,22.3,29.98,WNW,303,0.0,0.0,60,0.00,CLR,SKC,0.00,WeatherDisplay:10.37,2013-03-09 02:59:00,
2013-03-08 20:04:00,34.7,22.6,29.98,WNW,303,0.0,0.0,61,0.00,CLR,SKC,0.00,WeatherDisplay:10.37,2013-03-09 03:04:00,
2013-03-08 20:09:00,34.4,21.5,29.99,WNW,295,0.0,0.0,59,0.00,CLR,SKC,0.00,WeatherDisplay:10.37,2013-03-09 03:09:00,
2013-03-08 20:15:00,34.1,21.3,29.99,WNW,295,0.0,0.0,59,0.00,CLR,SKC,0.00,WeatherDisplay:10.37,2013-03-09 03:15:00,
2013-03-08 20:20:00,34.0,21.6,29.99,WNW,295,1.1,0.0,60,0.00,CLR,SKC,0.00,WeatherDisplay:10.37,2013-03-09 03:20:00,
2013-03-08 20:25:00,33.7,22.1,30.00,WNW,295,0.0,0.0,62,0.00,CLR,SKC,0.00,WeatherDisplay:10.37,2013-03-09 03:25:00,
2013-03-08 20:30:00,33.4,22.1,30.00,WNW,295,0.0,0.0,63,0.00,CLR,SKC,0.00,WeatherDisplay:10.37,2013-03-09 03:30:00,
2013-03-08 20:35:00,32.8,22.0,30.00,WNW,295,0.0,0.0,64,0.00,CLR,SKC,0.00,WeatherDisplay:10.37,2013-03-09 03:35:00,
2013-03-08 20:40:00,32.0,21.6,30.00,WNW,295,0.0,0.0,65,0.00,CLR,SKC,0.00,WeatherDisplay:10.37,2013-03-09 03:40:00,
2013-03-08 20:45:00,31.5,21.1,30.00,WNW,295,0.0,0.0,65,0.00,CLR,SKC,0.00,WeatherDisplay:10.37,2013-03-09 03:45:00,
2013-03-08 20:51:00,31.0,21.0,30.01,WNW,295,0.0,0.0,66,0.00,CLR,SKC,0.00,WeatherDisplay:10.37,2013-03-09 03:51:00,
2013-03-08 20:56:00,30.6,21.3,30.01,WNW,295,0.0,0.0,68,0.00,CLR,SKC,0.00,WeatherDisplay:10.37,2013-03-09 03:56:00,
2013-03-08 21:01:00,30.3,21.0,30.01,WNW,295,0.0,0.0,68,0.00,CLR,SKC,0.00,WeatherDisplay:10.37,2013-03-09 04:01:00,
2013-03-08 21:06:00,30.3,21.0,30.01,WNW,295,0.0,0.0,68,0.00,CLR,SKC,0.00,WeatherDisplay:10.37,2013-03-09 04:06:00,
2013-03-08 21:11:00,30.4,20.0,30.02,WNW,295,0.0,0.0,65,0.00,CLR,SKC,0.00,WeatherDisplay:10.37,2013-03-09 04:11:00,
2013-03-08 21:17:00,30.3,20.3,30.02,WNW,295,0.0,0.0,66,0.00,CLR,SKC,0.00,WeatherDisplay:10.37,2013-03-09 04:17:00,
2013-03-08 21:23:00,30.1,20.8,30.02,WNW,295,0.0,0.0,68,0.00,CLR,SKC,0.00,WeatherDisplay:10.37,2013-03-09 04:23:00,
2013-03-08 21:28:00,29.7,21.1,30.02,WNW,295,1.1,1.1,70,0.00,CLR,SKC,0.00,WeatherDisplay:10.37,2013-03-09 04:28:00,
2013-03-08 21:33:00,29.5,20.6,30.02,WNW,295,0.0,0.0,69,0.00,CLR,SKC,0.00,WeatherDisplay:10.37,2013-03-09 04:33:00,
2013-03-08 21:38:00,29.4,20.8,30.02,WNW,295,0.0,0.0,70,0.00,CLR,SKC,0.00,WeatherDisplay:10.37,2013-03-09 04:38:00,
2013-03-08 21:43:00,29.3,21.1,30.03,WNW,295,0.0,0.0,71,0.00,CLR,SKC,0.00,WeatherDisplay:10.37,2013-03-09 04:43:00,
2013-03-08 21:48:00,29.1,21.2,30.03,WNW,295,0.0,0.0,72,0.00,CLR,SKC,0.00,WeatherDisplay:10.37,2013-03-09 04:48:00,
2013-03-08 21:53:00,28.9,21.0,30.03,WNW,295,0.0,0.0,72,0.00,CLR,SKC,0.00,WeatherDisplay:10.37,2013-03-09 04:53:00,
2013-03-08 21:58:00,28.7,20.1,30.03,WNW,295,0.0,0.0,70,0.00,CLR,SKC,0.00,WeatherDisplay:10.37,2013-03-09 04:58:00,
2013-03-08 22:00:00,28.7,20.1,30.03,WNW,295,0.0,0.0,70,0.00,CLR,SKC,0.00,WeatherDisplay:10.37,2013-03-09 05:00:00,
2013-03-08 22:03:00,28.8,20.6,30.04,WNW,295,0.0,0.0,71,0.00,CLR,SKC,0.00,WeatherDisplay:10.37,2013-03-09 05:03:00,
2013-03-08 22:04:00,28.8,20.9,30.04,WNW,295,0.0,0.0,72,0.00,CLR,SKC,0.00,WeatherDisplay:10.37,2013-03-09 05:04:00,
2013-03-08 22:09:00,28.8,21.6,30.04,WNW,295,1.1,0.0,74,0.00,CLR,SKC,0.00,WeatherDisplay:10.37,2013-03-09 05:09:00,
2013-03-08 22:14:00,28.5,20.9,30.03,WNW,295,0.0,0.0,73,0.00,CLR,SKC,0.00,WeatherDisplay:10.37,2013-03-09 05:14:00,
2013-03-08 22:19:00,28.4,20.8,30.04,WNW,295,0.0,0.0,73,0.00,CLR,SKC,0.00,WeatherDisplay:10.37,2013-03-09 05:19:00,
2013-03-08 22:25:00,28.1,20.6,30.04,WNW,295,1.1,1.1,73,0.00,CLR,SKC,0.00,WeatherDisplay:10.37,2013-03-09 05:25:00,
2013-03-08 22:30:00,28.0,20.5,30.04,WNW,295,0.0,0.0,73,0.00,CLR,SKC,0.00,WeatherDisplay:10.37,2013-03-09 05:30:00,
2013-03-08 22:36:00,28.0,21.1,30.04,WNW,295,0.0,0.0,75,0.00,CLR,SKC,0.00,WeatherDisplay:10.37,2013-03-09 05:36:00,
2013-03-08 22:41:00,27.8,20.6,30.04,WNW,295,0.0,0.0,74,0.00,CLR,SKC,0.00,WeatherDisplay:10.37,2013-03-09 05:41:00,
2013-03-08 22:46:00,27.8,20.9,30.04,NW,316,2.3,2.3,75,0.00,CLR,SKC,0.00,WeatherDisplay:10.37,2013-03-09 05:46:00,
2013-03-08 22:51:00,27.8,21.2,30.04,NW,316,0.0,0.0,76,0.00,CLR,SKC,0.00,WeatherDisplay:10.37,2013-03-09 05:51:00,
2013-03-08 22:57:00,27.7,20.8,30.04,NW,316,0.0,0.0,75,0.00,CLR,SKC,0.00,WeatherDisplay:10.37,2013-03-09 05:57:00,
2013-03-08 23:02:00,27.5,20.9,30.04,NW,316,1.1,1.1,76,0.00,CLR,SKC,0.00,WeatherDisplay:10.37,2013-03-09 06:02:00,
2013-03-08 23:07:00,27.3,21.0,30.04,NW,316,0.0,0.0,77,0.00,CLR,SKC,0.00,WeatherDisplay:10.37,2013-03-09 06:07:00,
2013-03-08 23:12:00,27.2,20.6,30.05,NW,316,0.0,0.0,76,0.00,CLR,SKC,0.00,WeatherDisplay:10.37,2013-03-09 06:12:00,
2013-03-08 23:17:00,27.2,20.9,30.05,NW,316,0.0,0.0,77,0.00,CLR,SKC,0.00,WeatherDisplay:10.37,2013-03-09 06:17:00,
2013-03-08 23:22:00,27.0,20.7,30.05,NW,316,0.0,0.0,77,0.00,CLR,SKC,0.00,WeatherDisplay:10.37,2013-03-09 06:22:00,
2013-03-08 23:27:00,26.9,20.3,30.05,NW,316,0.0,0.0,76,0.00,CLR,SKC,0.00,WeatherDisplay:10.37,2013-03-09 06:27:00,
2013-03-08 23:32:00,26.9,20.0,30.05,NW,316,0.0,0.0,75,0.00,CLR,SKC,0.00,WeatherDisplay:10.37,2013-03-09 06:32:00,
2013-03-08 23:37:00,26.9,21.0,30.06,NW,316,0.0,0.0,78,0.00,CLR,SKC,0.00,WeatherDisplay:10.37,2013-03-09 06:37:00,
2013-03-08 23:42:00,26.8,20.6,30.06,NW,316,0.0,0.0,77,0.00,CLR,SKC,0.00,WeatherDisplay:10.37,2013-03-09 06:42:00,
2013-03-08 23:47:00,26.6,20.1,30.06,NW,316,0.0,0.0,76,0.00,CLR,SKC,0.00,WeatherDisplay:10.37,2013-03-09 06:47:00,
2013-03-08 23:52:00,26.5,19.3,30.06,NW,316,0.0,0.0,74,0.00,CLR,SKC,0.00,WeatherDisplay:10.37,2013-03-09 06:52:00,
2013-03-08 23:57:00,26.3,19.1,30.06,NW,316,0.0,0.0,74,0.00,CLR,SKC,0.00,WeatherDisplay:10.37,2013-03-09 06:57:00,